| time (UTC) | temp F | wind direction | speed MPH | gust MPH | rain 1hr in | rain 24hr in | rain mn in | humidity % | barometer mb |
| 20260503211307 | 56 | 150 | 0.0 | 0.0 | 0.00 | 0.15 | 0.15 | 91 | 1011.0 |
| 20260503205735 | 56 | 150 | 0.0 | 0.0 | 0.00 | 0.15 | 0.15 | 91 | 1010.9 |
| 20260503205232 | 56 | 150 | 0.0 | 0.0 | 0.00 | 0.15 | 0.15 | 91 | 1010.9 |
| 20260503204735 | 56 | 150 | 0.0 | 0.0 | 0.00 | 0.15 | 0.15 | 91 | 1011.0 |
| 20260503204216 | 56 | 150 | 0.0 | 0.0 | 0.00 | 0.15 | 0.15 | 91 | 1011.0 |
| 20260503203706 | 56 | 150 | 0.0 | 0.0 | 0.00 | 0.15 | 0.15 | 91 | 1011.1 |
| 20260503203206 | 57 | 150 | 0.0 | 0.0 | 0.00 | 0.15 | 0.15 | 91 | 1011.0 |
| 20260503202641 | 57 | 150 | 0.0 | 0.0 | 0.00 | 0.15 | 0.15 | 91 | 1011.0 |
| 20260503201635 | 57 | 150 | 0.0 | 0.0 | 0.00 | 0.15 | 0.15 | 91 | 1010.8 |
| 20260503201125 | 57 | 150 | 0.0 | 1.0 | 0.00 | 0.15 | 0.15 | 91 | 1010.8 |
| 20260503200611 | 57 | 150 | 0.0 | 1.0 | 0.00 | 0.15 | 0.15 | 90 | 1010.8 |
| 20260503200108 | 57 | 150 | 0.0 | 1.0 | 0.00 | 0.15 | 0.15 | 90 | 1010.8 |
| 20260503195607 | 57 | 150 | 0.0 | 1.0 | 0.00 | 0.15 | 0.15 | 90 | 1010.8 |
| 20260503195111 | 57 | 132 | 0.0 | 0.0 | 0.00 | 0.15 | 0.15 | 90 | 1010.8 |
| 20260503194604 | 57 | 132 | 0.0 | 0.0 | 0.00 | 0.15 | 0.15 | 90 | 1010.8 |
| 20260503194105 | 57 | 132 | 0.0 | 0.0 | 0.00 | 0.15 | 0.15 | 90 | 1010.7 |
| 20260503193608 | 57 | 136 | 0.0 | 0.0 | 0.00 | 0.15 | 0.15 | 90 | 1010.6 |
| 20260503193107 | 57 | 136 | 0.0 | 0.0 | 0.00 | 0.15 | 0.15 | 90 | 1010.5 |
| 20260503192052 | 57 | 148 | 0.0 | 0.0 | 0.00 | 0.15 | 0.15 | 90 | 1010.4 |
| 20260503191536 | 57 | 148 | 0.0 | 0.0 | 0.00 | 0.15 | 0.15 | 90 | 1010.4 |
| 20260503191027 | 57 | 160 | 0.0 | 0.0 | 0.00 | 0.15 | 0.15 | 90 | 1010.3 |
| 20260503190527 | 57 | 155 | 0.0 | 0.0 | 0.00 | 0.15 | 0.15 | 90 | 1010.3 |
| 20260503190031 | 57 | 155 | 0.0 | 0.0 | 0.00 | 0.15 | 0.15 | 90 | 1010.3 |
| 20260503185524 | 58 | 155 | 0.0 | 0.0 | 0.00 | 0.15 | 0.15 | 90 | 1010.2 |
| 20260503185030 | 58 | 155 | 0.0 | 0.0 | 0.00 | 0.15 | 0.15 | 90 | 1010.2 |
| 20260503184526 | 58 | 155 | 0.0 | 0.0 | 0.00 | 0.15 | 0.15 | 90 | 1010.2 |
| 20260503184030 | 58 | 156 | 0.0 | 0.0 | 0.00 | 0.15 | 0.15 | 90 | 1010.1 |
| 20260503183525 | 58 | 167 | 0.0 | 0.0 | 0.00 | 0.15 | 0.15 | 90 | 1010.1 |
| 20260503183022 | 58 | 167 | 0.0 | 0.0 | 0.00 | 0.15 | 0.15 | 90 | 1010.0 |
| 20260503182518 | 58 | 167 | 0.0 | 0.0 | 0.00 | 0.15 | 0.15 | 90 | 1009.9 |
| 20260503182023 | 58 | 167 | 0.0 | 1.0 | 0.00 | 0.15 | 0.15 | 90 | 1009.9 |
| 20260503181521 | 58 | 167 | 0.0 | 1.0 | 0.00 | 0.15 | 0.15 | 90 | 1009.8 |
| 20260503181023 | 58 | 165 | 0.0 | 1.0 | 0.00 | 0.15 | 0.15 | 90 | 1009.7 |
| 20260503180451 | 58 | 134 | 0.0 | 0.0 | 0.00 | 0.15 | 0.15 | 90 | 1009.6 |
| 20260503175944 | 58 | 132 | 0.0 | 2.0 | 0.00 | 0.15 | 0.15 | 90 | 1009.5 |
| 20260503175446 | 58 | 129 | 0.0 | 2.0 | 0.00 | 0.15 | 0.15 | 90 | 1009.6 |
| 20260503174934 | 58 | 178 | 0.0 | 1.0 | 0.00 | 0.15 | 0.15 | 89 | 1009.6 |
| 20260503174436 | 58 | 176 | 0.0 | 3.0 | 0.00 | 0.15 | 0.15 | 89 | 1009.6 |
| 20260503173934 | 58 | 176 | 0.0 | 3.0 | 0.00 | 0.15 | 0.15 | 89 | 1009.6 |
| 20260503173437 | 58 | 157 | 0.0 | 2.0 | 0.00 | 0.15 | 0.15 | 89 | 1009.6 |
| 20260503172927 | 58 | 148 | 0.0 | 2.0 | 0.00 | 0.15 | 0.15 | 89 | 1009.7 |
| 20260503172422 | 58 | 168 | 0.0 | 2.0 | 0.00 | 0.15 | 0.15 | 89 | 1009.7 |
| 20260503171919 | 58 | 150 | 0.0 | 2.0 | 0.00 | 0.15 | 0.15 | 90 | 1009.7 |
| 20260503171405 | 58 | 169 | 0.0 | 4.0 | 0.00 | 0.15 | 0.15 | 89 | 1009.7 |
| 20260503170904 | 58 | 178 | 0.0 | 4.0 | 0.00 | 0.15 | 0.15 | 89 | 1009.7 |
| 20260503170417 | 58 | 179 | 0.0 | 4.0 | 0.00 | 0.15 | 0.15 | 89 | 1009.7 |
| 20260503150703 | 59 | 198 | 0.0 | 6.0 | 0.00 | 0.15 | 0.15 | 89 | 1009.4 |
| 20260503150204 | 59 | 58 | 1.0 | 4.0 | 0.00 | 0.15 | 0.15 | 90 | 1009.4 |
| 20260503140111 | 58 | 215 | 0.0 | 2.0 | 0.00 | 0.15 | 0.15 | 91 | 1009.7 |
| 20260503131023 | 58 | 169 | 0.0 | 4.0 | 0.00 | 0.15 | 0.14 | 91 | 1010.1 |
| 20260503130518 | 58 | 156 | 0.0 | 3.0 | 0.01 | 0.15 | 0.14 | 91 | 1010.3 |
| 20260503110422 | 59 | 32 | 0.0 | 2.0 | 0.05 | 0.09 | 0.09 | 91 | 1010.2 |
| 20260503090110 | 60 | 80 | 0.0 | 2.0 | 0.00 | 0.04 | 0.04 | 91 | 1010.1 |
| 20260503081535 | 59 | 108 | 0.0 | 2.0 | 0.00 | 0.04 | 0.04 | 92 | 1010.0 |
| 20260503081038 | 59 | 27 | 0.0 | 5.0 | 0.00 | 0.04 | 0.04 | 92 | 1010.0 |
| 20260503080533 | 58 | 54 | 0.0 | 5.0 | 0.00 | 0.05 | 0.04 | 92 | 1009.9 |
| 20260503071519 | 58 | 41 | 0.0 | 4.0 | 0.00 | 0.05 | 0.04 | 92 | 1010.0 |
| 20260503070517 | 58 | 39 | 1.0 | 6.0 | 0.00 | 0.05 | 0.04 | 92 | 1010.0 |
| 20260503054432 | 55 | 43 | 0.0 | 0.0 | 0.01 | 0.05 | 0.04 | 92 | 1010.3 |
| 20260503053932 | 55 | 46 | 0.0 | 0.0 | 0.01 | 0.05 | 0.04 | 92 | 1010.3 |
| 20260503053432 | 55 | 46 | 0.0 | 0.0 | 0.01 | 0.05 | 0.04 | 92 | 1010.3 |
| 20260503052914 | 55 | 46 | 0.0 | 0.0 | 0.01 | 0.05 | 0.04 | 92 | 1010.3 |
| 20260503052403 | 55 | 40 | 0.0 | 0.0 | 0.01 | 0.05 | 0.04 | 92 | 1010.4 |
| 20260503051906 | 55 | 40 | 0.0 | 0.0 | 0.01 | 0.05 | 0.04 | 92 | 1010.4 |
| 20260503051354 | 55 | 40 | 0.0 | 0.0 | 0.01 | 0.05 | 0.04 | 92 | 1010.5 |
| 20260503050333 | 55 | 40 | 0.0 | 0.0 | 0.00 | 0.04 | 0.03 | 92 | 1010.3 |
| 20260503045833 | 55 | 40 | 0.0 | 0.0 | 0.01 | 0.04 | 0.01 | 92 | 1010.3 |
| 20260503045336 | 55 | 40 | 0.0 | 0.0 | 0.01 | 0.04 | 0.01 | 91 | 1010.4 |
| 20260503044833 | 55 | 40 | 0.0 | 0.0 | 0.01 | 0.04 | 0.01 | 91 | 1010.3 |
| 20260503044324 | 55 | 40 | 0.0 | 0.0 | 0.01 | 0.04 | 0.01 | 91 | 1010.3 |
| 20260503043820 | 55 | 40 | 0.0 | 0.0 | 0.01 | 0.04 | 0.01 | 91 | 1010.3 |
| 20260503042808 | 55 | 40 | 0.0 | 0.0 | 0.02 | 0.04 | 0.01 | 91 | 1010.3 |
| 20260503042305 | 55 | 40 | 0.0 | 0.0 | 0.02 | 0.04 | 0.01 | 91 | 1010.4 |
| 20260503041807 | 55 | 40 | 0.0 | 0.0 | 0.02 | 0.04 | 0.01 | 91 | 1010.4 |
| 20260503041242 | 55 | 40 | 0.0 | 0.0 | 0.02 | 0.04 | 0.01 | 91 | 1010.4 |
| 20260503040733 | 55 | 40 | 0.0 | 0.0 | 0.02 | 0.04 | 0.01 | 91 | 1010.6 |
| 20260503040232 | 55 | 40 | 0.0 | 0.0 | 0.02 | 0.04 | 0.03 | 91 | 1010.6 |
| 20260503035210 | 55 | 40 | 0.0 | 1.0 | 0.02 | 0.03 | 0.02 | 91 | 1010.8 |
| 20260503034707 | 55 | 40 | 0.0 | 1.0 | 0.02 | 0.03 | 0.02 | 91 | 1011.0 |
| 20260503033709 | 55 | 39 | 0.0 | 0.0 | 0.02 | 0.03 | 0.02 | 91 | 1011.2 |
| 20260503033206 | 55 | 39 | 0.0 | 0.0 | 0.01 | 0.02 | 0.02 | 91 | 1011.3 |
| 20260503032704 | 55 | 39 | 0.0 | 0.0 | 0.01 | 0.02 | 0.02 | 91 | 1011.4 |
| 20260503032154 | 55 | 39 | 0.0 | 0.0 | 0.00 | 0.02 | 0.01 | 91 | 1011.5 |
| 20260503031636 | 55 | 39 | 0.0 | 0.0 | 0.00 | 0.02 | 0.01 | 91 | 1011.5 |
| 20260503031110 | 55 | 39 | 0.0 | 0.0 | 0.00 | 0.02 | 0.01 | 91 | 1011.3 |
| 20260503030608 | 55 | 39 | 0.0 | 0.0 | 0.00 | 0.02 | 0.01 | 91 | 1011.4 |
| 20260503030114 | 55 | 39 | 0.0 | 0.0 | 0.00 | 0.02 | 0.01 | 91 | 1011.3 |
| 20260503025612 | 55 | 39 | 0.0 | 0.0 | 0.00 | 0.02 | 0.01 | 91 | 1011.3 |
| 20260503025107 | 55 | 39 | 0.0 | 0.0 | 0.00 | 0.02 | 0.01 | 91 | 1011.4 |
| 20260503024611 | 55 | 39 | 0.0 | 0.0 | 0.00 | 0.02 | 0.01 | 91 | 1011.3 |
| 20260503024108 | 55 | 39 | 0.0 | 0.0 | 0.00 | 0.02 | 0.01 | 91 | 1011.4 |
| 20260503023608 | 55 | 39 | 0.0 | 0.0 | 0.00 | 0.02 | 0.01 | 91 | 1011.4 |
| 20260503023105 | 55 | 39 | 0.0 | 0.0 | 0.00 | 0.02 | 0.01 | 91 | 1011.5 |
| 20260503022546 | 55 | 39 | 0.0 | 0.0 | 0.00 | 0.02 | 0.01 | 91 | 1011.4 |
| 20260503022034 | 55 | 39 | 0.0 | 0.0 | 0.00 | 0.02 | 0.01 | 91 | 1011.4 |
| 20260503021529 | 55 | 39 | 0.0 | 0.0 | 0.00 | 0.02 | 0.01 | 91 | 1011.4 |
| 20260503021024 | 55 | 39 | 0.0 | 0.0 | 0.00 | 0.02 | 0.01 | 91 | 1011.4 |
| 20260503020516 | 55 | 39 | 0.0 | 0.0 | 0.00 | 0.02 | 0.01 | 91 | 1011.4 |
| 20260503020013 | 55 | 39 | 0.0 | 0.0 | 0.00 | 0.02 | 0.01 | 91 | 1011.5 |
| 20260503015525 | 55 | 39 | 0.0 | 0.0 | 0.00 | 0.02 | 0.01 | 91 | 1011.6 |
| 20260503014028 | 55 | 39 | 0.0 | 0.0 | 0.00 | 0.02 | 0.01 | 91 | 1011.6 |
| 20260503013524 | 55 | 39 | 0.0 | 0.0 | 0.00 | 0.02 | 0.01 | 91 | 1011.5 |
| 20260503013011 | 55 | 39 | 0.0 | 0.0 | 0.00 | 0.02 | 0.01 | 91 | 1011.6 |
| 20260503012525 | 55 | 39 | 0.0 | 0.0 | 0.00 | 0.02 | 0.01 | 91 | 1011.5 |
| 20260503012028 | 55 | 39 | 0.0 | 0.0 | 0.00 | 0.02 | 0.01 | 91 | 1011.5 |
| 20260503011524 | 55 | 39 | 0.0 | 0.0 | 0.00 | 0.02 | 0.01 | 91 | 1011.5 |
| 20260503011020 | 55 | 39 | 0.0 | 0.0 | 0.00 | 0.02 | 0.01 | 91 | 1011.5 |
| 20260503010521 | 55 | 39 | 0.0 | 0.0 | 0.00 | 0.02 | 0.01 | 91 | 1011.7 |
| 20260503010007 | 55 | 39 | 0.0 | 0.0 | 0.00 | 0.02 | 0.01 | 91 | 1011.7 |
| 20260503005511 | 55 | 38 | 0.0 | 0.0 | 0.00 | 0.02 | 0.01 | 91 | 1011.7 |
| 20260503005008 | 55 | 38 | 0.0 | 0.0 | 0.00 | 0.02 | 0.01 | 91 | 1011.7 |
| 20260503004523 | 55 | 38 | 0.0 | 0.0 | 0.00 | 0.02 | 0.01 | 91 | 1011.7 |
| 20260503003456 | 55 | 38 | 0.0 | 0.0 | 0.00 | 0.02 | 0.01 | 91 | 1011.6 |
| 20260503002939 | 55 | 38 | 0.0 | 2.0 | 0.00 | 0.02 | 0.01 | 91 | 1011.6 |
| 20260503002436 | 55 | 38 | 0.0 | 2.0 | 0.00 | 0.02 | 0.01 | 91 | 1011.8 |
| 20260503001412 | 56 | 37 | 0.0 | 2.0 | 0.00 | 0.02 | 0.01 | 90 | 1011.9 |
| 20260503000906 | 56 | 33 | 0.0 | 2.0 | 0.00 | 0.02 | 0.01 | 90 | 1012.0 |
| 20260503000408 | 56 | 30 | 0.0 | 3.0 | 0.00 | 0.02 | 0.01 | 90 | 1012.1 |
| 20260502235916 | 56 | 29 | 0.0 | 3.0 | 0.00 | 0.02 | 0.01 | 90 | 1012.1 |
| 20260502235407 | 56 | 51 | 0.0 | 1.0 | 0.01 | 0.02 | 0.01 | 90 | 1012.1 |
| 20260502234910 | 56 | 63 | 0.0 | 1.0 | 0.01 | 0.02 | 0.01 | 90 | 1012.2 |
| 20260502233906 | 56 | 44 | 0.0 | 3.0 | 0.01 | 0.02 | 0.01 | 90 | 1012.3 |
| 20260502233413 | 56 | 37 | 0.0 | 4.0 | 0.01 | 0.02 | 0.01 | 90 | 1012.4 |
| 20260502232905 | 56 | 37 | 0.0 | 4.0 | 0.01 | 0.02 | 0.01 | 90 | 1012.4 |
| 20260502232406 | 57 | 58 | 0.0 | 5.0 | 0.01 | 0.02 | 0.01 | 90 | 1012.6 |
| 20260502231409 | 57 | 53 | 1.0 | 6.0 | 0.01 | 0.02 | 0.01 | 90 | 1012.7 |
| 20260502230907 | 57 | 34 | 0.0 | 4.0 | 0.01 | 0.02 | 0.01 | 90 | 1012.8 |
| 20260502230419 | 57 | 68 | 0.0 | 4.0 | 0.01 | 0.02 | 0.01 | 89 | 1013.0 |
| 20260502225839 | 57 | 40 | 0.0 | 8.0 | 0.01 | 0.02 | 0.01 | 89 | 1012.9 |
| 20260502225337 | 57 | 51 | 2.0 | 8.0 | 0.00 | 0.01 | 0.00 | 89 | 1013.1 |
| 20260502224308 | 57 | 359 | 4.0 | 14.0 | 0.00 | 0.01 | 0.00 | 88 | 1013.9 |
| 20260502223806 | 56 | 9 | 3.0 | 12.0 | 0.00 | 0.01 | 0.00 | 88 | 1013.7 |
| 20260502223311 | 56 | 41 | 2.0 | 10.0 | 0.00 | 0.01 | 0.00 | 88 | 1013.8 |
| 20260502222805 | 56 | 70 | 2.0 | 8.0 | 0.00 | 0.01 | 0.00 | 88 | 1014.3 |
| 20260502222306 | 55 | 172 | 1.0 | 6.0 | 0.00 | 0.01 | 0.00 | 88 | 1014.0 |
| 20260502221233 | 55 | 55 | 0.0 | 0.0 | 0.00 | 0.01 | 0.00 | 88 | 1013.0 |
| 20260502220735 | 55 | 54 | 0.0 | 0.0 | 0.00 | 0.01 | 0.00 | 89 | 1013.0 |
| 20260502215704 | 55 | 56 | 0.0 | 0.0 | 0.00 | 0.01 | 0.01 | 89 | 1013.0 |
| 20260502214709 | 55 | 53 | 0.0 | 0.0 | 0.00 | 0.01 | 0.01 | 89 | 1013.1 |
| 20260502214149 | 55 | 52 | 0.0 | 0.0 | 0.00 | 0.01 | 0.01 | 89 | 1013.2 |
| 20260502213639 | 54 | 52 | 0.0 | 0.0 | 0.00 | 0.01 | 0.01 | 89 | 1013.2 |
| 20260502212611 | 54 | 93 | 0.0 | 0.0 | 0.00 | 0.01 | 0.01 | 88 | 1013.2 |
| 20260502212125 | 55 | 94 | 0.0 | 0.0 | 0.00 | 0.01 | 0.01 | 88 | 1013.5 |